datetime,inflow
1973-05-10,206.70833
1973-05-11,134.6125
1973-05-12,295.94583
1973-05-13,306.53333
1973-05-14,453.24583
1973-05-15,755.74083
1973-05-16,722.46667
1973-05-17,674.56583
1973-05-18,996.7275
1973-05-19,1083.44417
1973-05-20,1111.6775
1973-05-21,988.16
1973-05-22,1188.31417
1973-05-23,801.11333
1973-05-24,821.78416
1973-05-25,954.38
1973-05-26,546.50916
1973-05-27,547.01333
1973-05-28,538.94666
1973-05-29,538.94666
1973-05-30,551.55
1973-05-31,663.475
1973-06-01,870.18083
1973-06-02,709.35167
1973-06-03,742.62667
1973-06-04,693.21833
1973-06-05,561.12667
1973-06-06,464.32667
1973-06-07,790.5225
1973-06-08,1040.58917
1973-06-09,1252.33917
1973-06-10,1289.6475
1973-06-11,1488.78834
1973-06-12,1343.08833
1973-06-13,1138.90083
1973-06-14,1109.655
1973-06-15,1142.435
1973-06-16,773.88917
1973-06-17,610.035
1973-06-18,415.42667
1973-06-19,273.75583
1973-06-20,405.84417
1973-06-21,406.34834
1973-06-22,446.1775
1973-06-23,505.66917
1973-06-24,544.99417
1973-06-25,659.9425
1973-06-26,799.60167
1973-06-27,796.07083
1973-06-28,714.9
1973-06-29,649.35916
1973-06-30,629.69666
1973-07-01,610.03416
1973-07-02,403.33083
1973-07-03,418.45083
1973-07-04,378.62166
1973-07-05,398.78833
1973-07-06,312.07833
1973-07-07,351.9075
1973-07-08,351.9075
1973-07-09,332.245
1973-07-10,407.35667
1973-07-11,290.39
1973-07-12,311.565
1973-07-13,486.00916
1973-07-14,467.355
1973-07-15,391.73
1973-07-16,430.55083
1973-07-17,380.13667
1973-07-18,362.995
1973-07-19,400.8075
1973-07-20,419.46167
1973-07-21,347.36583
1973-07-22,209.72667
1973-07-23,244.01417
1973-07-24,297.45583
1973-07-25,279.81
1973-07-26,297.96
1973-07-27,279.81
1973-07-28,208.21833
1973-07-29,226.8725
1973-07-30,179.48417
1973-07-31,197.63417
1973-08-01,197.63417
1973-08-02,197.63417
1973-08-03,215.28
1973-08-04,232.92583
1973-08-05,232.92583
1973-08-06,232.92583
1973-08-07,177.46583
1973-08-08,159.82
1973-08-09,132.09
1973-08-10,113.94
1973-08-11,131.58583
1973-08-12,131.58583
1973-08-13,131.58583
1973-08-14,131.58583
1973-08-15,113.94
1973-08-16,96.29416
1973-08-17,131.58583
1973-08-18,167.88583
1973-08-19,167.38166
1973-08-20,167.88583
1973-08-21,167.88583
1973-08-22,168.39
1973-08-23,150.24
1973-08-24,113.94
1973-08-25,113.94
1973-08-26,113.94
1973-08-27,113.94
1973-08-28,115.96
1973-08-29,94.28
1973-08-30,94.28
1973-08-31,94.78417
1973-09-01,94.28
1973-09-02,94.78417
1973-09-03,94.78417
1973-09-04,110.91
1973-09-05,129.06
1973-09-06,150.24
1973-09-07,132.59416
1973-09-08,132.09
1973-09-09,114.44416
1973-09-10,114.94833
1973-09-11,114.94833
1973-09-12,112.93
1973-09-13,113.43417
1973-09-14,131.08
1973-09-15,113.43417
1973-09-16,95.78833
1973-09-17,96.2925
1973-09-18,113.43417
1973-09-19,108.39416
1973-09-20,108.89833
1973-09-21,83.18417
1973-09-22,100.83
1973-09-23,100.83
1973-09-24,83.18417
1973-09-25,100.83
1973-09-26,83.68833
1973-09-27,100.83
1973-09-28,83.18417
1973-09-29,83.68833
1973-09-30,83.18417
1973-10-01,153.26333
1973-10-02,48.39667
1973-10-03,48.90083
1973-10-04,23.18833
1973-10-05,23.6925
1973-10-06,24.19667
1973-10-07,24.70083
1973-10-08,25.205
1973-10-09,25.205
1973-10-10,81.1675
1973-10-11,80.66333
1973-10-12,79.15083
1973-10-13,88.2275
1973-10-14,87.72333
1973-10-15,88.2275
1973-10-16,86.21083
1973-10-17,88.2275
1973-10-18,87.72333
1973-10-19,53.94416
1973-10-20,53.44
1973-10-21,53.94416
1973-10-22,55.96083
1973-10-23,53.94416
1973-10-24,54.44833
1973-10-25,52.9325
1973-10-26,68.56167
1973-10-27,69.06583
1973-10-28,69.06583
1973-10-29,70.57833
1973-10-30,69.57
1973-10-31,69.06583
1973-11-01,69.57
1973-11-02,49.41167
1973-11-03,51.42833
1973-11-04,49.41167
1973-11-05,49.91583
1973-11-06,50.92417
1973-11-07,49.91583
1973-11-08,78.14917
1973-11-09,77.645
1973-11-10,78.14917
1973-11-11,78.14917
1973-11-12,62.51917
1973-11-13,49.41083
1973-11-14,48.4025
1973-11-15,49.915
1973-11-16,47.89833
1973-11-17,49.915
1973-11-18,48.4025
1973-11-19,49.41083
1973-11-20,48.4025
1973-11-21,44.87333
1973-11-22,45.3775
1973-11-23,44.87333
1973-11-24,45.3775
1973-11-25,44.87333
1973-11-26,45.3775
1973-11-27,44.87333
1973-11-28,45.3775
1973-11-29,44.87333
1973-11-30,44.87333
1973-12-01,45.3775
1973-12-02,44.87333
1973-12-03,45.3775
1973-12-04,44.87333
1973-12-05,42.3525
1973-12-06,40.33583
1973-12-07,41.84833
1973-12-08,40.84
1973-12-09,41.84833
1973-12-10,40.33583
1973-12-11,42.3525
1973-12-12,40.33583
1973-12-13,26.72333
1973-12-14,28.23583
1973-12-15,26.72333
1973-12-16,26.21917
1973-12-17,28.74
1973-12-18,12.60333
1973-12-19,97.87
1973-12-20,97.87
1973-12-21,97.87
1973-12-22,97.87
1973-12-23,97.87
1973-12-24,97.87
1973-12-25,97.87
1973-12-26,97.87
1973-12-27,97.87
1973-12-28,97.87
1973-12-29,97.87
1973-12-30,97.87
1973-12-31,97.87
1974-01-01,97.87
1974-01-02,97.87
1974-01-03,97.87
1974-01-04,97.87
1974-01-05,97.87
1974-01-06,97.87
1974-01-07,97.87
1974-01-08,97.87
1974-01-09,97.87
1974-01-10,97.87
1974-01-11,97.87
1974-01-12,97.87
1974-01-13,97.87
1974-01-14,97.87
1974-01-15,97.87
1974-01-16,97.87
1974-01-17,97.87
1974-01-18,97.87
1974-01-19,97.87
1974-01-20,97.87
1974-01-21,97.87
1974-01-22,97.87
1974-01-23,97.87
1974-01-24,97.87
1974-01-25,97.87
1974-01-26,97.87
1974-01-27,97.87
1974-01-28,97.87
1974-01-29,97.87
1974-01-30,97.87
1974-01-31,97.87
1974-02-01,97.87
1974-02-02,97.87
1974-02-03,97.87
1974-02-04,97.87
1974-02-05,97.87
1974-02-06,97.87
1974-02-07,97.87
1974-02-08,97.87
1974-02-09,97.87
1974-02-10,97.87
1974-02-11,97.87
1974-02-12,97.87
1974-02-13,97.87
1974-02-14,97.87
1974-02-15,97.87
1974-02-16,97.87
1974-02-17,97.87
1974-02-18,97.87
1974-02-19,97.87
1974-02-20,97.87
1974-02-21,97.87
1974-02-22,97.87
1974-02-23,97.87
1974-02-24,97.87
1974-02-25,97.87
1974-02-26,97.87
1974-02-27,97.87
1974-02-28,97.87
1974-03-01,97.87
1974-03-02,97.87
1974-03-03,97.87
1974-03-04,97.87
1974-03-05,97.87
1974-03-06,97.87
1974-03-07,97.87
1974-03-08,97.87
1974-03-09,97.87
1974-03-10,97.87
1974-03-11,97.87
1974-03-12,97.87
1974-03-13,97.87
1974-03-14,97.87
1974-03-15,97.87
1974-03-16,97.87
1974-03-17,97.87
1974-03-18,97.87
1974-03-19,97.87
1974-03-20,97.87
1974-03-21,97.87
1974-03-22,97.87
1974-03-23,97.87
1974-03-24,97.87
1974-03-25,97.87
1974-03-26,97.87
1974-03-27,97.87
1974-03-28,97.87
1974-03-29,97.87
1974-03-30,97.87
1974-03-31,97.87
1974-04-01,97.87
1974-04-02,97.87
1974-04-03,97.87
1974-04-04,97.87
1974-04-05,97.87
1974-04-06,97.87
1974-04-07,97.87
1974-04-08,97.87
1974-04-09,97.87
1974-04-10,97.87
1974-04-11,97.87
1974-04-12,97.87
1974-04-13,97.87
1974-04-14,97.87
1974-04-15,97.87
1974-04-16,97.87
1974-04-17,97.87
1974-04-18,97.87
1974-04-19,97.87
1974-04-20,97.87
1974-04-21,97.87
1974-04-22,97.87
1974-04-23,97.87
1974-04-24,97.87
1974-04-25,97.87
1974-04-26,97.87
1974-04-27,97.87
1974-04-28,97.87
1974-04-29,97.87
1974-04-30,97.87
1974-05-01,97.87
1974-05-02,97.87
1974-05-03,97.87
1974-05-04,97.87
1974-05-05,97.87
1974-05-06,97.87
1974-05-07,97.87
1974-05-08,97.87
1974-05-09,97.87
1974-05-10,97.87
1974-05-11,97.87
1974-05-12,97.87
1974-05-13,97.87
1974-05-14,97.87
1974-05-15,97.87
1974-05-16,97.87
1974-05-17,548.15
1974-05-18,548.15
1974-05-19,548.15
1974-05-20,548.15
1974-05-21,631.71
1974-05-22,685.65
1974-05-23,701.27917
1974-05-24,717.92334
1974-05-25,916.06084
1974-05-26,909.505
1974-05-27,932.19583
1974-05-28,1581.04583
1974-05-29,1506.935
1974-05-30,1514.99667
1974-05-31,1265.4375
1974-06-01,1141.92167
1974-06-02,1061.25583
1974-06-03,1207.46417
1974-06-04,1145.95583
1974-06-05,1024.95583
1974-06-06,1085.96
1974-06-07,572.7175
1974-06-08,711.8675
1974-06-09,712.37167
1974-06-10,663.47667
1974-06-11,721.96
1974-06-12,886.31417
1974-06-13,934.21
1974-06-14,1062.76833
1974-06-15,926.13917
1974-06-16,926.13917
1974-06-17,926.13917
1974-06-18,926.13917
1974-06-19,895.38917
1974-06-20,889.84
1974-06-21,853.54
1974-06-22,853.03583
1974-06-23,853.54
1974-06-24,615.58
1974-06-25,555.58
1974-06-26,482.98
1974-06-27,467.35417
1974-06-28,428.53667
1974-06-29,263.17
1974-06-30,266.195
1974-07-01,268.71583
1974-07-02,502.64333
1974-07-03,488.02167
1974-07-04,389.20583
1974-07-05,272.75167
1974-07-06,273.25583
1974-07-07,273.25583
1974-07-08,273.25583
1974-07-09,241.49333
1974-07-10,213.26167
1974-07-11,168.895
1974-07-12,201.665
1974-07-13,180.49
1974-07-14,182.0025
1974-07-15,162.83667
1974-07-16,261.65834
1974-07-17,262.1625
1974-07-18,263.17084
1974-07-19,259.1375
1974-07-20,260.14584
1974-07-21,260.65
1974-07-22,261.65834
1974-07-23,119.9925
1974-07-24,182.005
1974-07-25,182.005
1974-07-26,180.4925
1974-07-27,141.1675
1974-07-28,141.1675
1974-07-29,142.17583
1974-07-30,114.94333
1974-07-31,105.875
1974-08-01,116.4625
1974-08-02,116.4625
1974-08-03,112.42917
1974-08-04,111.42083
1974-08-05,112.93333
1974-08-06,99.315
1974-08-07,95.28167
1974-08-08,95.78583
1974-08-09,95.78583
1974-08-10,82.6775
1974-08-11,83.18167
1974-08-12,85.7025
1974-08-13,97.29833
1974-08-14,65.03583
1974-08-15,65.03583
1974-08-16,65.03583
1974-08-17,65.03583
1974-08-18,65.03583
1974-08-19,65.54
1974-08-20,69.06916
1974-08-21,55.45417
1974-08-22,56.4625
1974-08-23,57.975
1974-08-24,59.4875
1974-08-25,60.49584
1974-08-26,58.47917
1974-08-27,77.6425
1974-08-28,51.42583
1974-08-29,52.93833
1974-08-30,53.94667
1974-08-31,55.45917
1974-09-01,48.40083
1974-09-02,57.98
1974-09-03,48.89833
1974-09-04,52.43417
1974-09-05,56.4675
1974-09-06,57.47583
1974-09-07,58.48417
1974-09-08,59.4925
1974-09-09,60.50083
1974-09-10,58.48417
1974-09-11,57.9775
1974-09-12,57.9775
1974-09-13,58.48166
1974-09-14,59.49
1974-09-15,59.99416
1974-09-16,59.99416
1974-09-17,65.54
1974-09-18,43.35666
1974-09-19,43.35666
1974-09-20,45.37333
1974-09-21,42.84917
1974-09-22,42.84917
1974-09-23,43.35333
1974-09-24,43.8575
1974-09-25,39.32167
1974-09-26,39.82583
1974-09-27,40.33
1974-09-28,40.33
1974-09-29,40.33
1974-09-30,37.80917
1974-10-01,-2.51667
1974-10-02,43.86666
1974-10-03,44.37083
1974-10-04,43.86666
1974-10-05,44.37083
1974-10-06,43.86666
1974-10-07,43.86666
1974-10-08,37.80834
1974-10-09,32.77333
1974-10-10,39.83167
1974-10-11,31.765
1974-10-12,31.26083
1974-10-13,31.765
1974-10-14,31.26083
1974-10-15,31.765
1974-10-16,31.26083
1974-10-17,29.74167
1974-10-18,36.29584
1974-10-19,36.29584
1974-10-20,36.29584
1974-10-21,36.29584
1974-10-22,36.8
1974-10-23,19.66333
1974-10-24,24.20083
1974-10-25,24.20083
1974-10-26,24.20083
1974-10-27,24.20083
1974-10-28,23.69667
1974-10-29,137.63833
1974-10-30,33.78
1974-10-31,33.78
1974-11-01,24.20083
1974-11-02,24.20083
1974-11-03,23.69667
1974-11-04,24.20083
1974-11-05,24.20083
1974-11-06,24.20083
1974-11-07,29.23833
1974-11-08,33.27167
1974-11-09,33.77583
1974-11-10,33.27167
1974-11-11,33.27167
1974-11-12,33.27167
1974-11-13,33.77583
1974-11-14,19.15833
1974-11-15,19.15833
1974-11-16,18.15
1974-11-17,19.15833
1974-11-18,20.67083
1974-11-19,22.18333
1974-11-20,21.67917
1974-11-21,22.18333
1974-11-22,22.18333
1974-11-23,21.67917
1974-11-24,22.18333
1974-11-25,22.18333
1974-11-26,22.18333
1974-11-27,21.67917
1974-11-28,22.18333
1974-11-29,22.18333
1974-11-30,22.18333
1974-12-01,22.18333
1974-12-02,21.67917
1974-12-03,22.18333
1974-12-04,29.24334
1974-12-05,29.24334
1974-12-06,29.24334
1974-12-07,29.24334
1974-12-08,29.24334
1974-12-09,32.77
1974-12-10,
1974-12-11,
1974-12-12,
1974-12-13,
1974-12-14,
1974-12-15,
1974-12-16,
1974-12-17,
1974-12-18,
1974-12-19,
1974-12-20,
1974-12-21,
1974-12-22,
1974-12-23,
1974-12-24,
1974-12-25,
1974-12-26,
1974-12-27,
1974-12-28,
1974-12-29,
1974-12-30,
1974-12-31,
1975-01-01,
1975-01-02,
1975-01-03,
1975-01-04,
1975-01-05,
1975-01-06,
1975-01-07,
1975-01-08,
1975-01-09,
1975-01-10,
1975-01-11,
1975-01-12,
1975-01-13,
1975-01-14,
1975-01-15,
1975-01-16,
1975-01-17,
1975-01-18,
1975-01-19,
1975-01-20,
1975-01-21,
1975-01-22,
1975-01-23,
1975-01-24,
1975-01-25,
1975-01-26,
1975-01-27,
1975-01-28,
1975-01-29,
1975-01-30,
1975-01-31,
1975-02-01,
1975-02-02,
1975-02-03,
1975-02-04,
1975-02-05,
1975-02-06,
1975-02-07,
1975-02-08,
1975-02-09,
1975-02-10,
1975-02-11,
1975-02-12,
1975-02-13,
1975-02-14,
1975-02-15,
1975-02-16,
1975-02-17,
1975-02-18,
1975-02-19,
1975-02-20,
1975-02-21,
1975-02-22,
1975-02-23,
1975-02-24,
1975-02-25,
1975-02-26,
1975-02-27,
1975-02-28,
1975-03-01,
1975-03-02,
1975-03-03,
1975-03-04,
1975-03-05,
1975-03-06,
1975-03-07,
1975-03-08,
1975-03-09,
1975-03-10,
1975-03-11,
1975-03-12,
1975-03-13,
1975-03-14,
1975-03-15,
1975-03-16,
1975-03-17,
1975-03-18,
1975-03-19,
1975-03-20,
1975-03-21,
1975-03-22,
1975-03-23,
1975-03-24,
1975-03-25,
1975-03-26,
1975-03-27,
1975-03-28,
1975-03-29,
1975-03-30,
1975-03-31,
1975-04-01,
1975-04-02,
1975-04-03,
1975-04-04,
1975-04-05,
1975-04-06,
1975-04-07,
1975-04-08,
1975-04-09,
1975-04-10,
1975-04-11,
1975-04-12,
1975-04-13,
1975-04-14,
1975-04-15,
1975-04-16,
1975-04-17,
1975-04-18,
1975-04-19,
1975-04-20,
1975-04-21,
1975-04-22,
1975-04-23,
1975-04-24,
1975-04-25,
1975-04-26,
1975-04-27,
1975-04-28,
1975-04-29,
1975-04-30,
1975-05-01,
1975-05-02,
1975-05-03,
1975-05-04,
1975-05-05,
1975-05-06,
1975-05-07,
1975-05-08,
1975-05-09,
1975-05-10,
1975-05-11,
1975-05-12,
1975-05-13,
1975-05-14,
1975-05-15,
1975-05-16,
1975-05-17,301.99083
1975-05-18,305.01583
1975-05-19,309.55333
1975-05-20,194.09917
1975-05-21,195.1075
1975-05-22,195.1075
1975-05-23,195.61167
1975-05-24,196.62
1975-05-25,197.62833
1975-05-26,197.62833
1975-05-27,198.63667
1975-05-28,450.715
1975-05-29,277.28333
1975-05-30,253.58667
1975-05-31,413.4075
1975-06-01,413.91167
1975-06-02,416.93667
1975-06-03,725.48667
1975-06-04,837.41667
1975-06-05,1187.29667
1975-06-06,1399.55084
1975-06-07,1430.305
1975-06-08,1460.05084
1975-06-09,1487.27584
1975-06-10,943.79083
1975-06-11,695.74083
1975-06-12,873.71167
1975-06-13,950.84834
1975-06-14,1636.515
1975-06-15,1670.7975
1975-06-16,2069.08083
1975-06-17,1338.5475
1975-06-18,1340.06
1975-06-19,751.6975
1975-06-20,738.5875
1975-06-21,579.27083
1975-06-22,588.34583
1975-06-23,578.76416
1975-06-24,548.5225
1975-06-25,932.19333
1975-06-26,904.465
1975-06-27,754.2225
1975-06-28,1138.3975
1975-06-29,1148.48083
1975-06-30,1217.5475
1975-07-01,1717.1775
1975-07-02,1691.46084
1975-07-03,1519.03834
1975-07-04,1373.33417
1975-07-05,1324.43
1975-07-06,1288.13
1975-07-07,1371.82
1975-07-08,1317.36583
1975-07-09,1512.47417
1975-07-10,1439.88
1975-07-11,1060.75167
1975-07-12,1199.90167
1975-07-13,1199.90167
1975-07-14,1314.85084
1975-07-15,1275.52584
1975-07-16,1249.81
1975-07-17,1260.9
1975-07-18,381.14
1975-07-19,535.91917
1975-07-20,533.39834
1975-07-21,709.3525
1975-07-22,694.73167
1975-07-23,695.23584
1975-07-24,578.265
1975-07-25,468.35667
1975-07-26,468.86083
1975-07-27,469.86917
1975-07-28,470.37333
1975-07-29,502.64333
1975-07-30,369.5475
1975-07-31,416.435
1975-08-01,423.49333
1975-08-02,421.47667
1975-08-03,423.9975
1975-08-04,211.74083
1975-08-05,260.645
1975-08-06,260.645
1975-08-07,260.14083
1975-08-08,260.645
1975-08-09,260.645
1975-08-10,261.14917
1975-08-11,245.02417
1975-08-12,310.06167
1975-08-13,194.10167
1975-08-14,193.5975
1975-08-15,165.87
1975-08-16,143.1825
1975-08-17,142.67833
1975-08-18,142.67833
1975-08-19,119.99083
1975-08-20,131.58667
1975-08-21,131.58667
1975-08-22,112.9325
1975-08-23,113.43667
1975-08-24,113.43667
1975-08-25,113.94083
1975-08-26,113.43667
1975-08-27,113.94083
1975-08-28,113.94083
1975-08-29,120.99917
1975-08-30,113.94083
1975-08-31,107.38667
1975-09-01,93.775
1975-09-02,94.27917
1975-09-03,93.775
1975-09-04,94.27917
1975-09-05,94.27917
1975-09-06,94.27917
1975-09-07,94.27917
1975-09-08,94.78333
1975-09-09,90.245
1975-09-10,77.64083
1975-09-11,77.64083
1975-09-12,78.145
1975-09-13,78.145
1975-09-14,78.64917
1975-09-15,82.6825
1975-09-16,84.69667
1975-09-17,56.46333
1975-09-18,57.47167
1975-09-19,53.945
1975-09-20,56.46583
1975-09-21,56.46583
1975-09-22,54.95333
1975-09-23,45.37417
1975-09-24,45.37417
1975-09-25,45.87833
1975-09-26,46.3825
1975-09-27,47.39083
1975-09-28,47.39083
1975-09-29,53.945
1975-09-30,46.3825
1975-10-01,-32.77167
1975-10-02,27.72833
1975-10-03,48.90333
1975-10-04,37.3075
1975-10-05,37.81167
1975-10-06,38.82
1975-10-07,39.32417
1975-10-08,49.40833
1975-10-09,62.0125
1975-10-10,62.0125
1975-10-11,63.02083
1975-10-12,63.02083
1975-10-13,64.02917
1975-10-14,65.0375
1975-10-15,65.0375
1975-10-16,66.04583
1975-10-17,66.04583
1975-10-18,67.05417
1975-10-19,68.0625
1975-10-20,68.0625
1975-10-21,93.77084
1975-10-22,70.57917
1975-10-23,71.5875
1975-10-24,72.59584
1975-10-25,74.10834
1975-10-26,75.11667
1975-10-27,76.62917
1975-10-28,77.6375
1975-10-29,78.14167
1975-10-30,73.1
1975-10-31,50.91583
1975-11-01,51.42
1975-11-02,51.42
1975-11-03,51.42
1975-11-04,51.92417
1975-11-05,27.22417
1975-11-06,
1975-11-07,
1975-11-08,
1975-11-09,
1975-11-10,
1975-11-11,
1975-11-12,
1975-11-13,
1975-11-14,
1975-11-15,
1975-11-16,
1975-11-17,
1975-11-18,
1975-11-19,
1975-11-20,
1975-11-21,
1975-11-22,
1975-11-23,
1975-11-24,
1975-11-25,
1975-11-26,
1975-11-27,
1975-11-28,
1975-11-29,
1975-11-30,
1975-12-01,
1975-12-02,
1975-12-03,
1975-12-04,
1975-12-05,
1975-12-06,
1975-12-07,
1975-12-08,
1975-12-09,
1975-12-10,
1975-12-11,
1975-12-12,
1975-12-13,
1975-12-14,
1975-12-15,
1975-12-16,
1975-12-17,
1975-12-18,
1975-12-19,
1975-12-20,
1975-12-21,
1975-12-22,
1975-12-23,
1975-12-24,
1975-12-25,
1975-12-26,
1975-12-27,
1975-12-28,
1975-12-29,
1975-12-30,
1975-12-31,
1976-01-01,
1976-01-02,
1976-01-03,
1976-01-04,
1976-01-05,
1976-01-06,
1976-01-07,
1976-01-08,
1976-01-09,
1976-01-10,
1976-01-11,
1976-01-12,
1976-01-13,
1976-01-14,
1976-01-15,
1976-01-16,
1976-01-17,
1976-01-18,
1976-01-19,
1976-01-20,
1976-01-21,
1976-01-22,
1976-01-23,
1976-01-24,
1976-01-25,
1976-01-26,
1976-01-27,
1976-01-28,
1976-01-29,
1976-01-30,
1976-01-31,
1976-02-01,
1976-02-02,
1976-02-03,
1976-02-04,
1976-02-05,
1976-02-06,
1976-02-07,
1976-02-08,
1976-02-09,
1976-02-10,
1976-02-11,
1976-02-12,
1976-02-13,
1976-02-14,
1976-02-15,
1976-02-16,
1976-02-17,
1976-02-18,
1976-02-19,
1976-02-20,
1976-02-21,
1976-02-22,
1976-02-23,
1976-02-24,
1976-02-25,
1976-02-26,
1976-02-27,
1976-02-28,
1976-02-29,
1976-03-01,
1976-03-02,
1976-03-03,
1976-03-04,
1976-03-05,
1976-03-06,
1976-03-07,
1976-03-08,
1976-03-09,
1976-03-10,
1976-03-11,
1976-03-12,
1976-03-13,
1976-03-14,
1976-03-15,
1976-03-16,
1976-03-17,
1976-03-18,
1976-03-19,
1976-03-20,
1976-03-21,
1976-03-22,
1976-03-23,
1976-03-24,
1976-03-25,
1976-03-26,
1976-03-27,
1976-03-28,
1976-03-29,
1976-03-30,
1976-03-31,
1976-04-01,
1976-04-02,
1976-04-03,
1976-04-04,
1976-04-05,
1976-04-06,
1976-04-07,
1976-04-08,
1976-04-09,
1976-04-10,
1976-04-11,
1976-04-12,
1976-04-13,
1976-04-14,
1976-04-15,
1976-04-16,
1976-04-17,
1976-04-18,
1976-04-19,
1976-04-20,
1976-04-21,
1976-04-22,
1976-04-23,
1976-04-24,
1976-04-25,
1976-04-26,
1976-04-27,
1976-04-28,
1976-04-29,
1976-04-30,
1976-05-01,
1976-05-02,
1976-05-03,
1976-05-04,
1976-05-05,
1976-05-06,
1976-05-07,
1976-05-08,
1976-05-09,
1976-05-10,
1976-05-11,
1976-05-12,
1976-05-13,
1976-05-14,
1976-05-15,
1976-05-16,
1976-05-17,
1976-05-18,
1976-05-19,
1976-05-20,
1976-05-21,
1976-05-22,
1976-05-23,
1976-05-24,
1976-05-25,
1976-05-26,
1976-05-27,
1976-05-28,
1976-05-29,
1976-05-30,
1976-05-31,
1976-06-01,-41.71
1976-06-02,-41.71
1976-06-03,-41.71
1976-06-04,-41.71
1976-06-05,-41.71
1976-06-06,-41.71
1976-06-07,-41.71
1976-06-08,-41.71
1976-06-09,-41.71
1976-06-10,-41.71
1976-06-11,-41.71
1976-06-12,-41.71
1976-06-13,-41.71
1976-06-14,-41.71
1976-06-15,-41.71
1976-06-16,-41.71
1976-06-17,-41.71
1976-06-18,-41.71
1976-06-19,-41.71
1976-06-20,-41.71
1976-06-21,-41.71
1976-06-22,-41.71
1976-06-23,-41.71
1976-06-24,-41.71
1976-06-25,-41.71
1976-06-26,-41.71
1976-06-27,-41.71
1976-06-28,-41.71
1976-06-29,-41.71
1976-06-30,297.95167
1976-07-01,317.61417
1976-07-02,330.72667
1976-07-03,243.50583
1976-07-04,249.05167
1976-07-05,250.06
1976-07-06,229.39167
1976-07-07,234.935
1976-07-08,238.46417
1976-07-09,249.55583
1976-07-10,192.08083
1976-07-11,196.61833
1976-07-12,184.01333
1976-07-13,157.79666
1976-07-14,193.08833
1976-07-15,167.37583
1976-07-16,76.11833
1976-07-17,166.86833
1976-07-18,171.40583
1976-07-19,164.34917
1976-07-20,147.71167
1976-07-21,128.55917
1976-07-22,131.08
1976-07-23,123.0125
1976-07-24,90.74584
1976-07-25,94.275
1976-07-26,98.8125
1976-07-27,133.09584
1976-07-28,91.75917
1976-07-29,60.50083
1976-07-30,126.54667
1976-07-31,122.51333
1976-08-01,111.92583
1976-08-02,126.03833
1976-08-03,64.53417
1976-08-04,106.38
1976-08-05,106.38
1976-08-06,105.37167
1976-08-07,74.6175
1976-08-08,75.12167
1976-08-09,69.5775
1976-08-10,74.115
1976-08-11,67.04917
1976-08-12,66.545
1976-08-13,65.53917
1976-08-14,37.81
1976-08-15,37.81
1976-08-16,38.31417
1976-08-17,38.31417
1976-08-18,38.81833
1976-08-19,39.3225
1976-08-20,39.3225
1976-08-21,39.3225
1976-08-22,39.82667
1976-08-23,40.33083
1976-08-24,40.33083
1976-08-25,40.33083
1976-08-26,40.835
1976-08-27,41.33917
1976-08-28,41.33917
1976-08-29,41.33917
1976-08-30,41.84333
1976-08-31,47.89333
1976-09-01,31.25833
1976-09-02,31.7625
1976-09-03,31.7625
1976-09-04,31.7625
1976-09-05,32.26667
1976-09-06,32.26667
1976-09-07,32.26667
1976-09-08,32.26667
1976-09-09,32.26667
1976-09-10,32.77083
1976-09-11,32.77083
1976-09-12,32.77083
1976-09-13,32.77083
1976-09-14,33.275
1976-09-15,33.275
1976-09-16,33.275
1976-09-17,33.275
1976-09-18,33.77917
1976-09-19,33.275
1976-09-20,34.28333
1976-09-21,33.77917
1976-09-22,34.28333
1976-09-23,33.77917
1976-09-24,34.7875
1976-09-25,34.28333
1976-09-26,34.7875
1976-09-27,34.28333
1976-09-28,35.29167
1976-09-29,34.7875
1976-09-30,26.72083
1976-10-01,16.88
1976-10-02,16.88
1976-10-03,16.88
1976-10-04,16.88
1976-10-05,16.88
1976-10-06,16.88
1976-10-07,16.88
1976-10-08,16.88
1976-10-09,16.88
1976-10-10,16.88
1976-10-11,16.88
1976-10-12,16.88
1976-10-13,16.88
1976-10-14,16.88
1976-10-15,16.88
1976-10-16,16.88
1976-10-17,16.88
1976-10-18,16.88
1976-10-19,16.88
1976-10-20,16.88
1976-10-21,16.88
1976-10-22,16.88
1976-10-23,16.88
1976-10-24,16.88
1976-10-25,16.88
1976-10-26,16.88
1976-10-27,16.88
1976-10-28,16.88
1976-10-29,16.88
1976-10-30,16.88
1976-10-31,16.88
1976-11-01,9.81
1976-11-02,9.81
1976-11-03,9.81
1976-11-04,9.81
1976-11-05,9.81
1976-11-06,9.81
1976-11-07,9.81
1976-11-08,9.81
1976-11-09,9.81
1976-11-10,9.81
1976-11-11,9.81
1976-11-12,9.81
1976-11-13,9.81
1976-11-14,9.81
1976-11-15,9.81
1976-11-16,9.81
1976-11-17,9.81
1976-11-18,9.81
1976-11-19,9.81
1976-11-20,9.81
1976-11-21,9.81
1976-11-22,9.81
1976-11-23,9.81
1976-11-24,9.81
1976-11-25,9.81
1976-11-26,9.81
1976-11-27,9.81
1976-11-28,9.81
1976-11-29,9.81
1976-11-30,9.81
1976-12-01,3.94
1976-12-02,3.94
1976-12-03,3.94
1976-12-04,3.94
1976-12-05,3.94
1976-12-06,3.94
1976-12-07,3.94
1976-12-08,3.94
1976-12-09,3.94
1976-12-10,3.94
1976-12-11,3.94
1976-12-12,3.94
1976-12-13,3.94
1976-12-14,3.94
1976-12-15,3.94
1976-12-16,3.94
1976-12-17,3.94
1976-12-18,3.94
1976-12-19,3.94
1976-12-20,3.94
1976-12-21,3.94
1976-12-22,3.94
1976-12-23,3.94
1976-12-24,3.94
1976-12-25,3.94
1976-12-26,3.94
1976-12-27,3.94
1976-12-28,3.94
1976-12-29,3.94
1976-12-30,3.94
1976-12-31,3.94
1977-01-01,10.08
1977-01-02,6.55083
1977-01-03,7.055
1977-01-04,7.055
1977-01-05,7.055
1977-01-06,7.055
1977-01-07,7.055
1977-01-08,7.055
1977-01-09,6.04667
1977-01-10,4.53417
1977-01-11,4.03417
1977-01-12,4.53833
1977-01-13,4.03417
1977-01-14,4.03417
1977-01-15,4.53833
1977-01-16,4.03417
1977-01-17,0.5
1977-01-18,9.575
1977-01-19,8.56667
1977-01-20,10.07917
1977-01-21,8.56667
1977-01-22,9.575
1977-01-23,9.07084
1977-01-24,9.575
1977-01-25,9.575
1977-01-26,9.07084
1977-01-27,9.575
1977-01-28,8.56667
1977-01-29,9.575
1977-01-30,9.07084
1977-01-31,9.075
1977-02-01,10.08333
1977-02-02,10.5875
1977-02-03,10.08333
1977-02-04,10.5875
1977-02-05,10.08333
1977-02-06,10.5875
1977-02-07,10.08333
1977-02-08,9.57917
1977-02-09,11.09167
1977-02-10,9.57917
1977-02-11,11.09167
1977-02-12,9.57917
1977-02-13,10.08333
1977-02-14,10.5875
1977-02-15,10.08333
1977-02-16,10.5875
1977-02-17,10.08333
1977-02-18,10.08333
1977-02-19,10.5875
1977-02-20,10.08333
1977-02-21,11.09167
1977-02-22,10.5875
1977-02-23,14.11667
1977-02-24,13.6125
1977-02-25,14.11667
1977-02-26,14.11667
1977-02-27,14.11667
1977-02-28,13.6125
1977-03-01,13.6125
1977-03-02,13.10833
1977-03-03,13.10833
1977-03-04,13.6125